,,,PA_Meas_PMT16A,,PR_Meas_QMR101_102,,RH_Meas_QMH101,,SR_Meas_QMS101,,TA_Meas_QMH101,,GenWind,,GenWind,
date,time,status,PA,status,PR,status,RH,status,SR,status,TA,status,DirAvg,status,SpdAvg,
2012-10-09, 00:00:04,VALID,1009.17,VALID,0,VALID,104,VALID,0,VALID,23.4779,VALID,117,VALID,0.487109,
2012-10-09, 00:01:04,VALID,1009.16,VALID,0,VALID,104,VALID,0,VALID,23.4797,VALID,118,VALID,0.370313,
2012-10-09, 00:02:04,VALID,1009.14,VALID,0,VALID,104,VALID,0,VALID,23.4797,VALID,118,VALID,0.205469,
2012-10-09, 00:03:04,VALID,1009.16,VALID,0,VALID,104,VALID,0,VALID,23.4797,VALID,120,VALID,0.136719,
2012-10-09, 00:04:04,VALID,1009.12,VALID,0,VALID,104,VALID,0,VALID,23.4779,VALID,119,VALID,0.178125,
2012-10-09, 00:05:04,VALID,1009.13,VALID,0,VALID,104,VALID,0,VALID,23.4797,VALID,119,VALID,0.2,
2012-10-09, 00:06:04,VALID,1009.15,VALID,0,VALID,104,VALID,0,VALID,23.4584,VALID,119,VALID,0.269922,
2012-10-09, 00:07:04,VALID,1009.12,VALID,0,VALID,104,VALID,0,VALID,23.4779,VALID,119,VALID,0.0886719,
2012-10-09, 00:08:04,VALID,1009.14,VALID,0,VALID,104,VALID,0,VALID,23.4797,VALID,118,VALID,0,
2012-10-09, 00:09:04,VALID,1009.12,VALID,0,VALID,104,VALID,0,VALID,23.4584,VALID,120,VALID,0.153125,
2012-10-09, 00:10:04,VALID,1009.1,VALID,0,VALID,104,VALID,0,VALID,23.4584,VALID,119,VALID,0.201172,
2012-10-09, 00:11:04,VALID,1009.08,VALID,0,VALID,104,VALID,0,VALID,23.4779,VALID,118,VALID,0.391406,
2012-10-09, 00:12:04,VALID,1009.05,VALID,0,VALID,104,VALID,0,VALID,23.4584,VALID,109,VALID,0.709375,
2012-10-09, 00:13:04,VALID,1009.06,VALID,0,VALID,104,VALID,0,VALID,23.4602,VALID,97,VALID,0.951563,
2012-10-09, 00:14:04,VALID,1009.03,VALID,0,VALID,104,VALID,0,VALID,23.4389,VALID,87,VALID,1.00703,
2012-10-09, 00:15:04,VALID,1009.03,VALID,0,VALID,104,VALID,0,VALID,23.4602,VALID,90,VALID,1.07773,
2012-10-09, 00:16:04,VALID,1009.03,VALID,0,VALID,104,VALID,0,VALID,23.4602,VALID,94,VALID,0.918359,
2012-10-09, 00:17:04,VALID,1009,VALID,0,VALID,104,VALID,0,VALID,23.4797,VALID,108,VALID,0.987891,
2012-10-09, 00:18:04,VALID,1008.99,VALID,0,VALID,104,VALID,0,VALID,23.4797,VALID,108,VALID,0.828516,
2012-10-09, 00:19:04,VALID,1009.01,VALID,0,VALID,104,VALID,0,VALID,23.4797,VALID,105,VALID,0.772656,
2012-10-09, 00:20:04,VALID,1009,VALID,0,VALID,104,VALID,0,VALID,23.4584,VALID,106,VALID,0.645312,
2012-10-09, 00:21:04,VALID,1008.97,VALID,0,VALID,104,VALID,0,VALID,23.4797,VALID,107,VALID,0.500391,
2012-10-09, 00:22:04,VALID,1008.98,VALID,0,VALID,104,VALID,0,VALID,23.4797,VALID,101,VALID,0.490625,
2012-10-09, 00:23:04,VALID,1008.96,VALID,0,VALID,104,VALID,0,VALID,23.4779,VALID,97,VALID,0.679688,
2012-10-09, 00:24:04,VALID,1008.94,VALID,0,VALID,104,VALID,0,VALID,23.4584,VALID,97,VALID,0.646875,
2012-10-09, 00:25:04,VALID,1008.92,VALID,0,VALID,104,VALID,0,VALID,23.4797,VALID,97,VALID,0.600781,
2012-10-09, 00:26:04,VALID,1008.92,VALID,0,VALID,104,VALID,0,VALID,23.4797,VALID,93,VALID,0.459375,
2012-10-09, 00:27:04,VALID,1008.92,VALID,0,VALID,104,VALID,0,VALID,23.4389,VALID,63,VALID,0.373828,
2012-10-09, 00:28:04,VALID,1008.89,VALID,0,VALID,104,VALID,0,VALID,23.4407,VALID,59,VALID,0.708594,
2012-10-09, 00:29:04,VALID,1008.89,VALID,0,VALID,104,VALID,0,VALID,23.4407,VALID,59,VALID,0.6125,
2012-10-09, 00:30:04,VALID,1008.86,VALID,0,VALID,104,VALID,0.112112,VALID,23.4194,VALID,59,VALID,0.605859,
2012-10-09, 00:31:04,VALID,1008.81,VALID,0,VALID,104,VALID,0,VALID,23.4194,VALID,59,VALID,0.469922,
2012-10-09, 00:32:04,VALID,1008.81,VALID,0,VALID,104,VALID,0,VALID,23.4,VALID,57,VALID,0.654688,
2012-10-09, 00:33:04,VALID,1008.81,VALID,0,VALID,104,VALID,0,VALID,23.3805,VALID,56,VALID,0.492188,
2012-10-09, 00:34:04,VALID,1008.77,VALID,0,VALID,104,VALID,0,VALID,23.361,VALID,56,VALID,0.453516,
2012-10-09, 00:35:04,VALID,1008.76,VALID,0,VALID,104,VALID,0,VALID,23.3628,VALID,56,VALID,0.572656,
2012-10-09, 00:36:04,VALID,1008.75,VALID,0,VALID,104,VALID,0,VALID,23.3433,VALID,56,VALID,0.317578,
2012-10-09, 00:37:04,VALID,1008.73,VALID,0,VALID,104,VALID,0,VALID,23.3238,VALID,56,VALID,0.164453,
2012-10-09, 00:38:04,VALID,1008.68,VALID,0,VALID,104,VALID,0,VALID,23.3026,VALID,56,VALID,0.0867188,
2012-10-09, 00:39:04,VALID,1008.69,VALID,0,VALID,104,VALID,0,VALID,23.3026,VALID,56,VALID,0.295703,
2012-10-09, 00:40:04,VALID,1008.67,VALID,0,VALID,104,VALID,0,VALID,23.3238,VALID,56,VALID,0.294922,
2012-10-09, 00:41:04,VALID,1008.68,VALID,0,VALID,104,VALID,0,VALID,23.3026,VALID,56,VALID,0.304297,
2012-10-09, 00:42:04,VALID,1008.67,VALID,0,VALID,104,VALID,0,VALID,23.3026,VALID,83,VALID,0.873047,
2012-10-09, 00:43:04,VALID,1008.66,VALID,0,VALID,104,VALID,0,VALID,23.2831,VALID,89,VALID,0.883984,
2012-10-09, 00:44:04,VALID,1008.66,VALID,0,VALID,104,VALID,0,VALID,23.2654,VALID,86,VALID,1.06758,
2012-10-09, 00:45:04,VALID,1008.65,VALID,0,VALID,104,VALID,0,VALID,23.2831,VALID,74,VALID,0.955078,
2012-10-09, 00:46:04,VALID,1008.61,VALID,0,VALID,104,VALID,0,VALID,23.2636,VALID,60,VALID,0.969141,
2012-10-09, 00:47:04,VALID,1008.62,VALID,0,VALID,104,VALID,0,VALID,23.2636,VALID,52,VALID,0.829687,
2012-10-09, 00:48:04,VALID,1008.62,VALID,0,VALID,104,VALID,0,VALID,23.2441,VALID,54,VALID,1.01758,
2012-10-09, 00:49:04,VALID,1008.61,VALID,0,VALID,104,VALID,0,VALID,23.2636,VALID,54,VALID,0.980859,
2012-10-09, 00:50:04,VALID,1008.59,VALID,0,VALID,104,VALID,0,VALID,23.2654,VALID,49,VALID,0.486719,
2012-10-09, 00:51:04,VALID,1008.57,VALID,0,VALID,104,VALID,0,VALID,23.2636,VALID,50,VALID,0.379687,
2012-10-09, 00:52:04,VALID,1008.57,VALID,0,VALID,104,VALID,0,VALID,23.2441,VALID,83,VALID,0.767578,
2012-10-09, 00:53:04,VALID,1008.55,VALID,0,VALID,104,VALID,0,VALID,23.2441,VALID,83,VALID,0.669531,
2012-10-09, 00:54:04,VALID,1008.58,VALID,0,VALID,104,VALID,0,VALID,23.2441,VALID,77,VALID,1.08594,
2012-10-09, 00:55:04,VALID,1008.56,VALID,0,VALID,104,VALID,0,VALID,23.2441,VALID,86,VALID,0.869531,
2012-10-09, 00:56:04,VALID,1008.55,VALID,0,VALID,104,VALID,0,VALID,23.2441,VALID,84,VALID,0.682031,
2012-10-09, 00:57:04,VALID,1008.54,VALID,0,VALID,104,VALID,0,VALID,23.2441,VALID,84,VALID,0.485547,
2012-10-09, 00:58:04,VALID,1008.53,VALID,0,VALID,104,VALID,0,VALID,23.2654,VALID,84,VALID,0.448438,
2012-10-09, 00:59:04,VALID,1008.53,VALID,0,VALID,104,VALID,0.112112,VALID,23.2246,VALID,106,VALID,0.870313,
2012-10-09, 01:00:04,VALID,1008.53,VALID,0,VALID,104,VALID,0,VALID,23.2246,VALID,86,VALID,1.04414,
2012-10-09, 01:01:04,VALID,1008.54,VALID,0,VALID,104,VALID,0,VALID,23.2246,VALID,123,VALID,1.01016,
2012-10-09, 01:02:04,VALID,1008.54,VALID,0,VALID,104,VALID,0,VALID,23.2459,VALID,148,VALID,0.751562,
2012-10-09, 01:03:04,VALID,1008.56,VALID,0,VALID,104,VALID,0,VALID,23.2459,VALID,106,VALID,0.482812,
2012-10-09, 01:04:04,VALID,1008.58,VALID,0,VALID,104,VALID,0,VALID,23.2246,VALID,86,VALID,0.485547,
2012-10-09, 01:05:04,VALID,1008.59,VALID,0,VALID,104,VALID,0,VALID,23.2264,VALID,89,VALID,0.789063,
2012-10-09, 01:06:04,VALID,1008.55,VALID,0,VALID,104,VALID,0,VALID,23.2069,VALID,89,VALID,0.475781,
2012-10-09, 01:07:04,VALID,1008.59,VALID,0,VALID,104,VALID,0,VALID,23.2264,VALID,89,VALID,0.288281,
2012-10-09, 01:08:04,VALID,1008.55,VALID,0,VALID,104,VALID,0,VALID,23.2051,VALID,89,VALID,0.0195313,
2012-10-09, 01:09:04,VALID,1008.57,VALID,0,VALID,104,VALID,0,VALID,23.2264,VALID,89,VALID,0,
2012-10-09, 01:10:04,VALID,1008.54,VALID,0,VALID,104,VALID,0,VALID,23.2069,VALID,89,VALID,0,
2012-10-09, 01:11:04,VALID,1008.53,VALID,0,VALID,104,VALID,0,VALID,23.2069,VALID,89,VALID,0,
2012-10-09, 01:12:04,VALID,1008.51,VALID,0,VALID,104,VALID,0,VALID,23.1874,VALID,66,VALID,0.806641,
2012-10-09, 01:13:04,VALID,1008.49,VALID,0,VALID,104,VALID,0,VALID,23.2069,VALID,66,VALID,0.425,
2012-10-09, 01:14:04,VALID,1008.47,VALID,0,VALID,104,VALID,0,VALID,23.1857,VALID,66,VALID,0.364844,
2012-10-09, 01:15:04,VALID,1008.46,VALID,0,VALID,104,VALID,0,VALID,23.2051,VALID,66,VALID,0.238281,
2012-10-09, 01:16:04,VALID,1008.45,VALID,0,VALID,104,VALID,0,VALID,23.2069,VALID,65,VALID,0.492188,
2012-10-09, 01:17:04,VALID,1008.46,VALID,0,VALID,104,VALID,0,VALID,23.1874,VALID,63,VALID,0.544141,
2012-10-09, 01:18:04,VALID,1008.45,VALID,0,VALID,104,VALID,0,VALID,23.1467,VALID,50,VALID,0.572266,
2012-10-09, 01:19:04,VALID,1008.46,VALID,0,VALID,104,VALID,0.112112,VALID,23.1272,VALID,46,VALID,0.773047,
2012-10-09, 01:20:04,VALID,1008.45,VALID,0,VALID,104,VALID,0,VALID,23.129,VALID,29,VALID,0.683594,
2012-10-09, 01:21:04,VALID,1008.46,VALID,0,VALID,104,VALID,0,VALID,23.129,VALID,22,VALID,0.746484,
2012-10-09, 01:22:04,VALID,1008.44,VALID,0,VALID,104,VALID,0,VALID,23.09,VALID,22,VALID,0.3625,
2012-10-09, 01:23:04,VALID,1008.42,VALID,0,VALID,104,VALID,0,VALID,23.1095,VALID,22,VALID,0.0796875,
2012-10-09, 01:24:04,VALID,1008.45,VALID,0,VALID,104,VALID,0,VALID,23.09,VALID,22,VALID,0.117188,
2012-10-09, 01:25:04,VALID,1008.44,VALID,0,VALID,104,VALID,0,VALID,23.09,VALID,22,VALID,0.230078,
2012-10-09, 01:26:04,VALID,1008.44,VALID,0,VALID,104,VALID,0,VALID,23.1112,VALID,25,VALID,0.553516,
2012-10-09, 01:27:04,VALID,1008.43,VALID,0,VALID,104,VALID,0.112112,VALID,23.0883,VALID,25,VALID,0.511719,
2012-10-09, 01:28:04,VALID,1008.4,VALID,0,VALID,104,VALID,0,VALID,23.09,VALID,25,VALID,0.163281,
2012-10-09, 01:29:04,VALID,1008.42,VALID,0,VALID,104,VALID,0,VALID,23.1095,VALID,25,VALID,0.391016,
2012-10-09, 01:30:04,VALID,1008.39,VALID,0,VALID,104,VALID,0,VALID,23.0688,VALID,75,VALID,0.882422,
2012-10-09, 01:31:04,VALID,1008.4,VALID,0,VALID,104,VALID,0,VALID,23.0493,VALID,72,VALID,0.653125,
2012-10-09, 01:32:04,VALID,1008.4,VALID,0,VALID,104,VALID,0,VALID,23.0688,VALID,67,VALID,0.596094,
2012-10-09, 01:33:04,VALID,1008.4,VALID,0,VALID,104,VALID,0,VALID,23.09,VALID,67,VALID,0.626953,
2012-10-09, 01:34:04,VALID,1008.39,VALID,0,VALID,104,VALID,0,VALID,23.0493,VALID,50,VALID,0.64375,
2012-10-09, 01:35:04,VALID,1008.41,VALID,0,VALID,104,VALID,0,VALID,23.09,VALID,72,VALID,0.788281,
2012-10-09, 01:36:04,VALID,1008.41,VALID,0,VALID,104,VALID,0,VALID,23.0688,VALID,70,VALID,0.221484,
2012-10-09, 01:37:04,VALID,1008.4,VALID,0,VALID,104,VALID,0,VALID,23.0705,VALID,70,VALID,0.305859,
2012-10-09, 01:38:04,VALID,1008.4,VALID,0,VALID,104,VALID,0,VALID,23.0493,VALID,70,VALID,0.084375,
2012-10-09, 01:39:04,VALID,1008.38,VALID,0,VALID,104,VALID,0,VALID,23.0493,VALID,70,VALID,0.114844,
2012-10-09, 01:40:04,VALID,1008.41,VALID,0,VALID,104,VALID,0,VALID,23.0493,VALID,66,VALID,0.423438,
2012-10-09, 01:41:04,VALID,1008.4,VALID,0,VALID,104,VALID,0,VALID,23.0298,VALID,66,VALID,0.159766,
2012-10-09, 01:42:04,VALID,1008.42,VALID,0,VALID,104,VALID,0,VALID,23.0511,VALID,66,VALID,0.211719,
2012-10-09, 01:43:04,VALID,1008.41,VALID,0,VALID,104,VALID,0,VALID,22.9909,VALID,78,VALID,0.510156,
2012-10-09, 01:44:04,VALID,1008.41,VALID,0,VALID,104,VALID,0,VALID,23.0103,VALID,101,VALID,0.469922,
2012-10-09, 01:45:04,VALID,1008.43,VALID,0,VALID,104,VALID,0,VALID,23.0316,VALID,101,VALID,0.188672,
2012-10-09, 01:46:04,VALID,1008.42,VALID,0,VALID,104,VALID,0,VALID,23.0316,VALID,101,VALID,0.53125,
2012-10-09, 01:47:04,VALID,1008.41,VALID,0,VALID,104,VALID,0,VALID,22.9909,VALID,99,VALID,0.895312,
2012-10-09, 01:48:04,VALID,1008.41,VALID,0,VALID,104,VALID,0,VALID,23.0103,VALID,72,VALID,0.913672,
2012-10-09, 01:49:04,VALID,1008.42,VALID,0,VALID,104,VALID,0,VALID,23.0121,VALID,84,VALID,1.08281,
2012-10-09, 01:50:04,VALID,1008.41,VALID,0,VALID,104,VALID,0,VALID,23.0103,VALID,76,VALID,0.959766,
2012-10-09, 01:51:04,VALID,1008.43,VALID,0,VALID,104,VALID,0,VALID,23.0316,VALID,93,VALID,0.689062,
2012-10-09, 01:52:04,VALID,1008.41,VALID,0,VALID,104,VALID,0,VALID,23.0103,VALID,100,VALID,0.913281,
2012-10-09, 01:53:04,VALID,1008.39,VALID,0,VALID,104,VALID,0,VALID,23.0298,VALID,102,VALID,0.603906,
2012-10-09, 01:54:04,VALID,1008.41,VALID,0,VALID,104,VALID,0,VALID,23.0493,VALID,101,VALID,0.641406,
2012-10-09, 01:55:04,VALID,1008.42,VALID,0,VALID,104,VALID,0,VALID,23.0688,VALID,128,VALID,0.551562,
2012-10-09, 01:56:04,VALID,1008.41,VALID,0,VALID,104,VALID,0,VALID,23.0493,VALID,120,VALID,0.659375,
2012-10-09, 01:57:04,VALID,1008.45,VALID,0,VALID,104,VALID,0,VALID,23.0493,VALID,108,VALID,0.848828,
2012-10-09, 01:58:04,VALID,1008.43,VALID,0,VALID,104,VALID,0.112112,VALID,23.0298,VALID,107,VALID,1.0125,
2012-10-09, 01:59:04,VALID,1008.47,VALID,0,VALID,104,VALID,0,VALID,23.0316,VALID,114,VALID,0.896094,
2012-10-09, 02:00:04,VALID,1008.46,VALID,0,VALID,104,VALID,0,VALID,23.0103,VALID,116,VALID,0.575391,
2012-10-09, 02:01:04,VALID,1008.45,VALID,0,VALID,104,VALID,0.112112,VALID,22.9909,VALID,86,VALID,0.623438,
2012-10-09, 02:02:04,VALID,1008.44,VALID,0,VALID,104,VALID,0,VALID,22.9909,VALID,85,VALID,0.910156,
2012-10-09, 02:03:04,VALID,1008.43,VALID,0,VALID,104,VALID,0,VALID,22.9909,VALID,99,VALID,0.979688,
2012-10-09, 02:04:04,VALID,1008.43,VALID,0,VALID,104,VALID,0,VALID,22.9909,VALID,86,VALID,1.09922,
2012-10-09, 02:05:04,VALID,1008.43,VALID,0,VALID,104,VALID,0,VALID,22.9909,VALID,94,VALID,0.887109,
2012-10-09, 02:06:04,VALID,1008.44,VALID,0,VALID,104,VALID,0,VALID,22.9909,VALID,108,VALID,0.810547,
2012-10-09, 02:07:04,VALID,1008.45,VALID,0,VALID,104,VALID,0,VALID,23.0103,VALID,134,VALID,1.22852,
2012-10-09, 02:08:04,VALID,1008.43,VALID,0,VALID,104,VALID,0,VALID,22.9926,VALID,131,VALID,0.919531,
2012-10-09, 02:09:04,VALID,1008.43,VALID,0,VALID,104,VALID,0.112112,VALID,23.0121,VALID,116,VALID,0.772656,
2012-10-09, 02:10:04,VALID,1008.45,VALID,0,VALID,104,VALID,0.112112,VALID,22.9909,VALID,123,VALID,0.852344,
2012-10-09, 02:11:04,VALID,1008.43,VALID,0,VALID,104,VALID,0,VALID,23.0121,VALID,130,VALID,0.697656,
2012-10-09, 02:12:04,VALID,1008.41,VALID,0,VALID,104,VALID,0,VALID,22.9909,VALID,147,VALID,0.516797,
2012-10-09, 02:13:04,VALID,1008.43,VALID,0,VALID,104,VALID,0,VALID,22.9909,VALID,148,VALID,0.737891,
2012-10-09, 02:14:04,VALID,1008.41,VALID,0,VALID,104,VALID,0.112112,VALID,22.9909,VALID,139,VALID,0.989844,
2012-10-09, 02:15:04,VALID,1008.37,VALID,0,VALID,104,VALID,0,VALID,23.0316,VALID,130,VALID,0.970312,
2012-10-09, 02:16:04,VALID,1008.34,VALID,0,VALID,104,VALID,0,VALID,22.9714,VALID,140,VALID,1.05352,
2012-10-09, 02:17:04,VALID,1008.31,VALID,0,VALID,104,VALID,0,VALID,22.9909,VALID,139,VALID,0.642969,
2012-10-09, 02:18:04,VALID,1008.29,VALID,0,VALID,104,VALID,0,VALID,22.9909,VALID,127,VALID,1.25664,
2012-10-09, 02:19:04,VALID,1008.28,VALID,0,VALID,104,VALID,0.112112,VALID,22.9909,VALID,129,VALID,0.654297,
2012-10-09, 02:20:04,VALID,1008.28,VALID,0,VALID,104,VALID,0,VALID,22.9909,VALID,153,VALID,0.642969,
2012-10-09, 02:21:04,VALID,1008.28,VALID,0,VALID,104,VALID,0,VALID,23.0121,VALID,149,VALID,0.855859,
2012-10-09, 02:22:04,VALID,1008.26,VALID,0,VALID,104,VALID,0,VALID,22.9909,VALID,145,VALID,1.07148,
2012-10-09, 02:23:04,VALID,1008.26,VALID,0,VALID,104,VALID,0,VALID,22.9926,VALID,108,VALID,0.68125,
2012-10-09, 02:24:04,VALID,1008.23,VALID,0,VALID,104,VALID,0,VALID,22.9926,VALID,108,VALID,0.408984,
2012-10-09, 02:25:04,VALID,1008.22,VALID,0,VALID,104,VALID,0,VALID,22.9909,VALID,108,VALID,0.349219,
2012-10-09, 02:26:04,VALID,1008.23,VALID,0,VALID,104,VALID,0,VALID,23.0121,VALID,148,VALID,0.619141,
2012-10-09, 02:27:04,VALID,1008.22,VALID,0,VALID,104,VALID,0,VALID,22.9909,VALID,117,VALID,1.17383,
2012-10-09, 02:28:04,VALID,1008.25,VALID,0,VALID,104,VALID,0,VALID,22.9714,VALID,116,VALID,0.81875,
2012-10-09, 02:29:04,VALID,1008.23,VALID,0,VALID,104,VALID,0,VALID,23.0316,VALID,102,VALID,0.596484,
2012-10-09, 02:30:04,VALID,1008.26,VALID,0,VALID,104,VALID,0,VALID,23.0316,VALID,97,VALID,0.873438,
2012-10-09, 02:31:04,VALID,1008.28,VALID,0,VALID,104,VALID,0,VALID,23.0316,VALID,91,VALID,0.958984,
2012-10-09, 02:32:04,VALID,1008.27,VALID,0,VALID,104,VALID,0,VALID,23.0511,VALID,74,VALID,0.764844,
2012-10-09, 02:33:04,VALID,1008.29,VALID,0,VALID,104,VALID,0,VALID,23.0103,VALID,94,VALID,1.19922,
2012-10-09, 02:34:04,VALID,1008.3,VALID,0,VALID,104,VALID,0,VALID,23.0511,VALID,74,VALID,0.691797,
2012-10-09, 02:35:04,VALID,1008.27,VALID,0,VALID,104,VALID,0,VALID,23.0298,VALID,76,VALID,1.09414,
2012-10-09, 02:36:04,VALID,1008.29,VALID,0,VALID,104,VALID,0,VALID,23.0493,VALID,90,VALID,0.758594,
2012-10-09, 02:37:04,VALID,1008.31,VALID,0,VALID,104,VALID,0,VALID,23.0493,VALID,103,VALID,0.980078,
2012-10-09, 02:38:04,VALID,1008.32,VALID,0,VALID,104,VALID,0,VALID,23.0688,VALID,121,VALID,0.559766,
2012-10-09, 02:39:04,VALID,1008.31,VALID,0,VALID,104,VALID,0,VALID,23.0688,VALID,108,VALID,0.579687,
2012-10-09, 02:40:04,VALID,1008.33,VALID,0,VALID,104,VALID,0,VALID,23.09,VALID,95,VALID,0.490234,
2012-10-09, 02:41:04,VALID,1008.33,VALID,0,VALID,104,VALID,0,VALID,23.0688,VALID,95,VALID,0.563281,
2012-10-09, 02:42:04,VALID,1008.34,VALID,0,VALID,104,VALID,0,VALID,23.09,VALID,86,VALID,0.627734,
2012-10-09, 02:43:04,VALID,1008.37,VALID,0,VALID,104,VALID,0,VALID,23.09,VALID,86,VALID,0.664844,
2012-10-09, 02:44:04,VALID,1008.41,VALID,0,VALID,104,VALID,0,VALID,23.0688,VALID,87,VALID,0.410937,
2012-10-09, 02:45:04,VALID,1008.45,VALID,0,VALID,104,VALID,0,VALID,23.0688,VALID,86,VALID,0.138672,
2012-10-09, 02:46:04,VALID,1008.45,VALID,0,VALID,104,VALID,0,VALID,23.0688,VALID,86,VALID,0.234375,
2012-10-09, 02:47:04,VALID,1008.46,VALID,0,VALID,104,VALID,0,VALID,23.1095,VALID,86,VALID,0,
2012-10-09, 02:48:04,VALID,1008.45,VALID,0,VALID,104,VALID,0,VALID,23.09,VALID,86,VALID,0,
2012-10-09, 02:49:04,VALID,1008.46,VALID,0,VALID,104,VALID,0,VALID,23.0883,VALID,86,VALID,0.0679687,
2012-10-09, 02:50:04,VALID,1008.46,VALID,0,VALID,104,VALID,0,VALID,23.0883,VALID,80,VALID,0.486328,
2012-10-09, 02:51:04,VALID,1008.5,VALID,0,VALID,104,VALID,0,VALID,23.0883,VALID,48,VALID,0.517187,
2012-10-09, 02:52:04,VALID,1008.49,VALID,0,VALID,104,VALID,0,VALID,23.0688,VALID,45,VALID,0.45,
2012-10-09, 02:53:04,VALID,1008.49,VALID,0,VALID,104,VALID,0,VALID,23.0493,VALID,44,VALID,0.554297,
2012-10-09, 02:54:04,VALID,1008.52,VALID,0,VALID,104,VALID,0,VALID,23.0511,VALID,44,VALID,0.435937,
2012-10-09, 02:55:04,VALID,1008.53,VALID,0,VALID,104,VALID,0,VALID,23.0316,VALID,44,VALID,0.324219,
2012-10-09, 02:56:04,VALID,1008.55,VALID,0,VALID,104,VALID,0,VALID,23.0121,VALID,44,VALID,0.000390625,
2012-10-09, 02:57:04,VALID,1008.56,VALID,0,VALID,104,VALID,0,VALID,23.0121,VALID,45,VALID,0,
2012-10-09, 02:58:04,VALID,1008.61,VALID,0,VALID,104,VALID,0,VALID,22.9714,VALID,45,VALID,0,
2012-10-09, 02:59:04,VALID,1008.63,VALID,0,VALID,104,VALID,0,VALID,23.0121,VALID,45,VALID,0,
2012-10-09, 03:00:04,VALID,1008.67,VALID,0,VALID,104,VALID,0.112112,VALID,22.9714,VALID,44,VALID,0,
2012-10-09, 03:01:04,VALID,1008.65,VALID,0,VALID,104,VALID,0,VALID,22.9714,VALID,44,VALID,0,
2012-10-09, 03:02:04,VALID,1008.72,VALID,0,VALID,104,VALID,0.112112,VALID,22.9519,VALID,44,VALID,0,
2012-10-09, 03:03:04,VALID,1008.71,VALID,0,VALID,104,VALID,0,VALID,22.9324,VALID,45,VALID,0,
2012-10-09, 03:04:04,VALID,1008.71,VALID,0,VALID,104,VALID,0,VALID,22.9324,VALID,45,VALID,0,
2012-10-09, 03:05:04,VALID,1008.68,VALID,0,VALID,104,VALID,0.112112,VALID,22.9731,VALID,44,VALID,0,
2012-10-09, 03:06:04,VALID,1008.69,VALID,0,VALID,104,VALID,0,VALID,22.9519,VALID,45,VALID,0.208984,
2012-10-09, 03:07:04,VALID,1008.7,VALID,0,VALID,104,VALID,0,VALID,22.9324,VALID,44,VALID,0.369141,
2012-10-09, 03:08:04,VALID,1008.65,VALID,0,VALID,104,VALID,0.112112,VALID,22.9519,VALID,44,VALID,0.414844,
2012-10-09, 03:09:04,VALID,1008.65,VALID,0,VALID,104,VALID,0,VALID,22.9324,VALID,44,VALID,0.436719,
2012-10-09, 03:10:04,VALID,1008.64,VALID,0,VALID,104,VALID,0,VALID,22.9519,VALID,44,VALID,0.527734,
2012-10-09, 03:11:04,VALID,1008.62,VALID,0,VALID,104,VALID,0,VALID,22.9536,VALID,44,VALID,0.541016,
2012-10-09, 03:12:04,VALID,1008.65,VALID,0,VALID,104,VALID,0.112112,VALID,22.9731,VALID,45,VALID,0.503516,
2012-10-09, 03:13:04,VALID,1008.63,VALID,0,VALID,104,VALID,0.112112,VALID,22.9519,VALID,45,VALID,0.450781,
2012-10-09, 03:14:04,VALID,1008.64,VALID,0,VALID,104,VALID,0,VALID,22.9519,VALID,44,VALID,0.404687,
2012-10-09, 03:15:04,VALID,1008.67,VALID,0,VALID,104,VALID,0,VALID,22.9926,VALID,44,VALID,0.402734,
2012-10-09, 03:16:04,VALID,1008.64,VALID,0,VALID,104,VALID,0,VALID,22.9519,VALID,45,VALID,0.460156,
2012-10-09, 03:17:04,VALID,1008.64,VALID,0,VALID,104,VALID,0,VALID,22.9926,VALID,44,VALID,0.510156,
2012-10-09, 03:18:04,VALID,1008.63,VALID,0,VALID,104,VALID,0,VALID,22.9926,VALID,45,VALID,0.56875,
2012-10-09, 03:19:04,VALID,1008.67,VALID,0,VALID,104,VALID,0,VALID,22.9536,VALID,44,VALID,0.430078,
2012-10-09, 03:20:04,VALID,1008.67,VALID,0,VALID,104,VALID,0.112112,VALID,22.9519,VALID,44,VALID,0.580078,
2012-10-09, 03:21:04,VALID,1008.68,VALID,0,VALID,104,VALID,0,VALID,22.9731,VALID,43,VALID,0.467969,
2012-10-09, 03:22:04,VALID,1008.68,VALID,0,VALID,104,VALID,0.112112,VALID,22.9731,VALID,44,VALID,0.603516,
2012-10-09, 03:23:04,VALID,1008.71,VALID,0,VALID,104,VALID,0.112112,VALID,22.9926,VALID,44,VALID,0.501562,
2012-10-09, 03:24:04,VALID,1008.69,VALID,0,VALID,104,VALID,0,VALID,22.9519,VALID,45,VALID,0.442187,
2012-10-09, 03:25:04,VALID,1008.71,VALID,0,VALID,104,VALID,0,VALID,22.9926,VALID,113,VALID,0.425,
2012-10-09, 03:26:04,VALID,1008.73,VALID,0,VALID,104,VALID,0,VALID,22.9926,VALID,108,VALID,0.705469,
2012-10-09, 03:27:04,VALID,1008.76,VALID,0,VALID,104,VALID,0.112112,VALID,22.9714,VALID,107,VALID,0.561719,
2012-10-09, 03:28:04,VALID,1008.74,VALID,0,VALID,104,VALID,0,VALID,22.9926,VALID,106,VALID,0.633984,
2012-10-09, 03:29:04,VALID,1008.73,VALID,0,VALID,104,VALID,0.112112,VALID,22.9926,VALID,92,VALID,1.0375,
2012-10-09, 03:30:04,VALID,1008.76,VALID,0,VALID,104,VALID,0,VALID,22.9909,VALID,92,VALID,0.300781,
2012-10-09, 03:31:04,VALID,1008.75,VALID,0,VALID,104,VALID,0,VALID,23.0121,VALID,85,VALID,0.623438,
2012-10-09, 03:32:04,VALID,1008.76,VALID,0,VALID,104,VALID,0.112112,VALID,22.9909,VALID,85,VALID,0.452344,
2012-10-09, 03:33:04,VALID,1008.77,VALID,0,VALID,104,VALID,0,VALID,23.0316,VALID,83,VALID,0.192969,
2012-10-09, 03:34:04,VALID,1008.77,VALID,0,VALID,104,VALID,0,VALID,23.0103,VALID,84,VALID,0.344922,
2012-10-09, 03:35:04,VALID,1008.79,VALID,0,VALID,104,VALID,0,VALID,23.0121,VALID,84,VALID,0.0972656,
2012-10-09, 03:36:04,VALID,1008.8,VALID,0,VALID,104,VALID,0,VALID,22.9909,VALID,85,VALID,0.303125,
2012-10-09, 03:37:04,VALID,1008.84,VALID,0,VALID,104,VALID,0,VALID,23.0316,VALID,85,VALID,0.573047,
2012-10-09, 03:38:04,VALID,1008.87,VALID,0,VALID,104,VALID,0.112112,VALID,23.0316,VALID,84,VALID,0.435547,
2012-10-09, 03:39:04,VALID,1008.87,VALID,0,VALID,104,VALID,0,VALID,23.0316,VALID,88,VALID,0.601953,
2012-10-09, 03:40:05,VALID,1008.91,VALID,0,VALID,104,VALID,0,VALID,22.9909,VALID,116,VALID,0.463281,
2012-10-09, 03:41:05,VALID,1008.91,VALID,0,VALID,104,VALID,0,VALID,22.9909,VALID,116,VALID,0.744531,
2012-10-09, 03:42:05,VALID,1008.88,VALID,0,VALID,104,VALID,0,VALID,23.0121,VALID,116,VALID,0.78125,
2012-10-09, 03:43:05,VALID,1008.94,VALID,0,VALID,104,VALID,0,VALID,22.9926,VALID,116,VALID,0.741797,
2012-10-09, 03:44:05,VALID,1008.93,VALID,0,VALID,104,VALID,0,VALID,22.9519,VALID,116,VALID,0.951172,
2012-10-09, 03:45:05,VALID,1008.91,VALID,0,VALID,104,VALID,0.112112,VALID,22.9519,VALID,117,VALID,0.722656,
2012-10-09, 03:46:05,VALID,1008.91,VALID,0,VALID,104,VALID,0.112112,VALID,22.9536,VALID,116,VALID,0.608594,
2012-10-09, 03:47:05,VALID,1008.9,VALID,0,VALID,104,VALID,0,VALID,22.9519,VALID,116,VALID,0.389844,
2012-10-09, 03:48:05,VALID,1008.91,VALID,0,VALID,104,VALID,0,VALID,22.9324,VALID,80,VALID,0.765234,
2012-10-09, 03:49:05,VALID,1008.91,VALID,0,VALID,104,VALID,0.112112,VALID,22.9536,VALID,77,VALID,0.941797,
2012-10-09, 03:50:05,VALID,1008.89,VALID,0,VALID,104,VALID,0.112112,VALID,22.9536,VALID,88,VALID,0.680078,
2012-10-09, 03:51:05,VALID,1008.9,VALID,0,VALID,104,VALID,0,VALID,22.9342,VALID,90,VALID,0.382813,
2012-10-09, 03:52:05,VALID,1008.92,VALID,0,VALID,104,VALID,0.112112,VALID,22.9536,VALID,89,VALID,0.658984,
2012-10-09, 03:53:05,VALID,1008.9,VALID,0,VALID,104,VALID,0.112112,VALID,22.9536,VALID,76,VALID,0.545703,